Overview Statistics Trail Chart Weather Telemetry Raw packets
 

This is the latest recevied weather packets stored in our database for station/object KC1BRV. If no packets are shown the sender has not sent any weather packets the latest 10 day(s).

<< 25 26 27 28 29 30 31 >>
Time Temp. Humidity Pressure Rain* Wind** Luminosity Snow
1788444838 21.11° C 99% 1015.7 hPa 0 mm - 83 W/m² -
1788444534 21.11° C 99% 1015.8 hPa 0 mm - 108 W/m² -
1788444229 21.11° C 99% 1015.7 hPa 1.78 mm - 143 W/m² -
1788443924 20.56° C 99% 1015.8 hPa 1.78 mm - 108 W/m² -
1788443619 20.56° C 99% 1015.9 hPa 0 mm - 50 W/m² -
1788443318 21.11° C 99% 1016 hPa 0 mm - 32 W/m² -
1788443013 21.11° C 99% 1015.9 hPa 1.27 mm - 66 W/m² -
1788442712 20.56° C 99% 1016 hPa 1.27 mm - 86 W/m² -
1788442408 20.56° C 99% 1016 hPa 4.83 mm - 60 W/m² -
1788442107 20.56° C 99% 1016.1 hPa 6.1 mm - 39 W/m² -
1788441804 20.56° C 99% 1015.8 hPa 4.32 mm - 43 W/m² -
1788441498 20.56° C 99% 1016 hPa 0 mm - 33 W/m² -
1788441198 20.56° C 99% 1016.3 hPa 0 mm - 35 W/m² -
1788440892 20.56° C 99% 1016.3 hPa 0 mm - 27 W/m² -
1788440592 20.56° C 99% 1016.1 hPa 0 mm - 21 W/m² -
1788440290 21.11° C 99% 1016 hPa 0 mm - 22 W/m² -
1788439986 20.56° C 99% 1016.2 hPa 0 mm - 19 W/m² -
1788439685 21.11° C 99% 1015.9 hPa 0 mm - 22 W/m² -
1788439381 21.11° C 99% 1015.9 hPa 0 mm - 22 W/m² -
1788439079 21.11° C 99% 1016.1 hPa 0 mm - 18 W/m² -
1788438779 21.11° C 99% 1016.1 hPa 0 mm - 21 W/m² -
1788438477 20.56° C 99% 1015.9 hPa 0 mm - 35 W/m² -
1788438173 20.56° C 99% 1016.1 hPa 0 mm - 26 W/m² -
1788437870 20.56° C 99% 1016 hPa 0 mm - 32 W/m² -
1788437567 20.56° C 98% 1016.2 hPa 0 mm - 26 W/m² -

* Rain latest hour (hover to see other rain measurements)
** Current wind speed in m/s (hover to see current wind gust speed)